Flag for Germany Weather past 2 weeks in Mainz, Rhineland-Palatinate, Germany

Now
63 °F

More clouds than sun.


Feels Like: 63 °F
Forecast: 47 / 66 °F
Wind: 9 mph from West

Location: Wiesbaden Airport

Current Time: Aug 23, 2014 at 1:35:19 PM

Latest Report: Aug 23, 2014 at 12:58 PM


Visibility: N/A

Pressure: 29.95 "Hg

Humidity: 64%

Dew point: 50 °F

Location of MainzLocation

Historic Weather in Mainz — Graph

°F

Mainz temperature yesterday

Maximum temperature yesterday: 68 °F (at 3:58 PM)
Minimum temperature yesterday: 45 °F (at 6:58 AM)
Average temperature yesterday: 57 °F

Past Weeks' High & Low Weather Summary

 TemperatureHumidityPressure
High81 °F (Aug 8, 2:58 PM)100% (Aug 10, 6:58 PM)30.12 "Hg (Aug 10, 6:58 PM)
Low45 °F (Aug 22, 6:58 AM)41% (Aug 12, 6:58 PM)29.66 "Hg (Aug 13, 3:58 PM)
Average62 °F75%29.91 "Hg
* Reported Aug 8 11:58 AM — Aug 23 11:58 AM, Mainz, Weather by CustomWeather, © 2014

Note: Actual official high and low records may vary slightly from our data, if they occured in-between our weather recording intervals... More about our weather records

Advertising

Mainz weather history for previous 24 hours

 ConditionsComfort  
Time TempWeatherWind HumidityBarometerVisibility
11:58 AM
Aug 23
63 °FScattered clouds.13 mph64%29.95 "HgN/A
10:58 AM61 °FPassing clouds.10 mph70%29.96 "HgN/A
9:58 AM59 °FPartly sunny.8 mph77%29.95 "HgN/A
8:58 AM57 °FBroken clouds.7 mph80%29.95 "HgN/A
7:58 AM56 °FPartly sunny.7 mph81%29.95 "HgN/A
6:58 AM55 °FMostly cloudy.2 mph84%29.94 "HgN/A
5:58 AM55 °FMostly cloudy.5 mph82%29.93 "HgN/A
4:58 AM55 °FMostly cloudy.7 mph82%29.93 "HgN/A
3:58 AM55 °FMostly cloudy.5 mph82%29.94 "HgN/A
2:58 AM54 °FPartly cloudy.5 mph83%29.93 "HgN/A
1:58 AM55 °FOvercast.1 mph83%29.94 "HgN/A
12:58 AM54 °FMostly cloudy.1 mph81%29.94 "HgN/A
11:58 PM
Aug 22
55 °FPassing clouds.No wind77%29.94 "HgN/A
10:58 PM57 °FPassing clouds.1 mph73%29.93 "HgN/A
9:58 PM60 °FPassing clouds.5 mph62%29.93 "HgN/A
8:58 PM63 °FScattered clouds.2 mph56%29.92 "HgN/A
7:58 PM65 °FPartly sunny.6 mph52%29.91 "HgN/A
6:58 PM66 °FOvercast.10 mph49%29.93 "HgN/A
5:58 PM66 °FOvercast.10 mph47%29.92 "HgN/A
4:58 PM66 °FMostly cloudy.12 mph46%29.93 "HgN/A
3:58 PM68 °FPartly sunny.12 mph43%29.94 "HgN/A
2:58 PM66 °FOvercast.8 mph49%29.96 "HgN/A
1:58 PM67 °FPartly sunny.8 mph49%29.96 "HgN/A
Weather by CustomWeather, © 2014

See weather overviewHow to use our weather pages